Weather History for Wilmington, NC

Change the Weather History Date:

Wednesday, January 30, 2013

  Actual Average Record
Temperature  
Mean Temperature 69 °F 47 °F  
Max Temperature 77 °F 58 °F 79 °F (2002)
Min Temperature 60 °F 36 °F 11 °F (1934)
Degree Days  
Heating Degree Days 0 18  
Month to date heating degree days 439 567  
Since 1 July heating degree days 1317 1451  
Cooling Degree Days 4 0  
Month to date cooling degree days 12 0  
Year to date cooling degree days 12 0  
Growing Degree Days 18 (Base 50)    
Moisture  
Dew Point 61 °F    
Average Humidity 77    
Maximum Humidity 93    
Minimum Humidity 60    
Precipitation  
Precipitation 0.00 in 0.13 in 1.54 in (1994)
Month to date precipitation 1.95 3.63  
Year to date precipitation 1.95 3.63  
Snow  
Snow 0.00 in 0.00 in 6.50 in (1936)
Month to date snowfall 0.0 0.4  
Since 1 July snowfall 0.0 1.2  
Snow Depth 0.00 in    
Sea Level Pressure  
Sea Level Pressure 29.91 in    
Wind  
Wind Speed 16 mph (South)    
Max Wind Speed 29 mph    
Max Gust Speed 41 mph    
Visibility 10 miles    
Events      
T = Trace of Precipitation, MM = Missing Value Source: NWS Daily Summary

Daily Weather History Graph

Daily Weather History Graph

Search for Another Location

Airport:

Trip Planner

Search our weather history database for the weather conditions in past years. The results will help you decide how hot, cold, wet, or windy it might be!

Date:

Astronomy

Jan. 30, 2013 Rise Set
Actual Time 7:10 AM EST 5:39 PM EST
Civil Twilight 6:43 AM EST 6:06 PM EST
Nautical Twilight 6:13 AM EST 6:36 PM EST
Astronomical Twilight 5:44 AM EST 7:06 PM EST
Moon 9:23 PM EST (1/30) 8:49 AM EST (1/30)
Length of Visible Light 11h 22m
Length of Day
10h 29m
Waning Gibbous, 88% of the Moon is Illuminated
Jan 30
Waning Gibbous
Feb 3
Last Quarter
Feb 10
New
Feb 17
First Quarter
Feb 25
Full

Hourly Weather History & Observations

Time (EST) Temp. Dew Point Humidity Pressure Visibility Wind Dir Wind Speed Gust Speed Precip Events Conditions
12:53 AM 62.1 °F 60.1 °F 93% 30.13 in 8.0 mi South 5.8 mph - N/A   Clear
1:53 AM 63.0 °F 61.0 °F 93% 30.11 in 9.0 mi South 8.1 mph - N/A   Clear
2:53 AM 63.0 °F 60.1 °F 90% 30.09 in 10.0 mi South 8.1 mph - N/A   Clear
3:53 AM 63.0 °F 60.1 °F 90% 30.08 in 10.0 mi South 8.1 mph - N/A   Clear
4:53 AM 64.0 °F 60.1 °F 87% 30.06 in 10.0 mi South 8.1 mph - N/A   Clear
5:53 AM 66.0 °F 61.0 °F 84% 30.04 in 10.0 mi South 13.8 mph - N/A   Clear
6:53 AM 64.9 °F 60.1 °F 84% 30.06 in 10.0 mi SSW 8.1 mph 18.4 mph N/A   Clear
7:53 AM 66.0 °F 61.0 °F 84% 30.04 in 10.0 mi South 10.4 mph - N/A   Clear
8:53 AM 69.1 °F 61.0 °F 75% 30.03 in 10.0 mi South 13.8 mph 25.3 mph N/A   Clear
9:53 AM 72.0 °F 61.0 °F 68% 30.02 in 10.0 mi South 19.6 mph 26.5 mph N/A   Clear
10:50 AM 73.4 °F 60.8 °F 65% 30.00 in 10.0 mi South 18.4 mph 29.9 mph N/A   Mostly Cloudy
10:53 AM 73.9 °F 61.0 °F 64% 30.00 in 10.0 mi South 18.4 mph 29.9 mph N/A   Mostly Cloudy
11:03 AM 73.4 °F 60.8 °F 65% 29.99 in 10.0 mi South 24.2 mph 33.4 mph N/A   Scattered Clouds
11:53 AM 75.0 °F 61.0 °F 62% 29.96 in 10.0 mi South 19.6 mph 28.8 mph N/A   Partly Cloudy
12:53 PM 75.9 °F 61.0 °F 60% 29.94 in 10.0 mi South 17.3 mph 29.9 mph N/A   Mostly Cloudy
1:53 PM 73.0 °F 61.0 °F 66% 29.91 in 10.0 mi South 19.6 mph 32.2 mph N/A   Overcast
2:53 PM 73.0 °F 61.0 °F 66% 29.88 in 10.0 mi South 18.4 mph 33.4 mph N/A   Overcast
3:53 PM 72.0 °F 61.0 °F 68% 29.85 in 10.0 mi South 23.0 mph 33.4 mph N/A   Mostly Cloudy
4:53 PM 71.1 °F 62.1 °F 73% 29.82 in 10.0 mi South 20.7 mph 31.1 mph N/A   Mostly Cloudy
5:53 PM 69.1 °F 62.1 °F 78% 29.80 in 10.0 mi South 19.6 mph 29.9 mph N/A   Overcast
6:53 PM 68.0 °F 63.0 °F 84% 29.77 in 10.0 mi South 20.7 mph 31.1 mph N/A   Overcast
7:53 PM 68.0 °F 62.1 °F 81% 29.75 in 10.0 mi South 21.9 mph 34.5 mph N/A   Overcast
8:06 PM 68.0 °F 62.6 °F 83% 29.74 in 10.0 mi South 20.7 mph 29.9 mph N/A   Overcast
8:26 PM 68.0 °F 62.6 °F 83% 29.74 in 10.0 mi South 20.7 mph 29.9 mph N/A   Overcast
8:53 PM 69.1 °F 62.1 °F 78% 29.73 in 10.0 mi South 23.0 mph 32.2 mph N/A   Overcast
9:53 PM 70.0 °F 62.1 °F 76% 29.70 in 10.0 mi South 19.6 mph 32.2 mph N/A   Overcast
10:21 PM 69.8 °F 62.6 °F 78% 29.67 in 10.0 mi South 24.2 mph 33.4 mph N/A   Overcast
10:53 PM 69.1 °F 62.1 °F 78% 29.66 in 10.0 mi South 21.9 mph 35.7 mph N/A   Overcast
11:53 PM 70.0 °F 63.0 °F 78% 29.62 in 10.0 mi South 25.3 mph 38.0 mph N/A   Mostly Cloudy